www.pogodaiklimat.ru

Погода и климат >> Архив погоды >> Россия >> Чукотка >> Омолон


АРХИВ ПОГОДЫ в Омолоне

Время (UTC), дата Ветер
(напр.,м/с)
 
Видим.   Явления Облачность Т
(С)
Тd
(С)
f
(%)
Тe
(С)
Тes
(С)
Комфортность P
(гПа)
Po
(гПа)
Тmin
(С)
Tmax
(С)
R
(мм)
R24
(мм)
S
(см)
09 18.06 С 1
{6}
50 км 10/0
[Ac trans Ci fib]
+21.8 +6.9 38 +23 +23 комфорт 1009.6 979.8 +26.0
12 18.06 ЮВ 1
{2}
50 км 10/0
[Ac trans Ci fib]
+14.6 +10.8 78 +15 +15 1010.8 980.3
15 18.06 В 1
{4}
50 км 10/0
[Ci fib]
+14.0 +6.8 62 +14 +14 1011.3 980.6
18 18.06 штиль 0
{2}
50 км 10/0
[Ci fib]
+13.6 +7.8 68 +13 +15 1011.6 981.1
21 18.06 ЮВ 1
{3}
50 км 10/0
[Ac trans Ci fib]
+16.6 +8.8 60 +18 +22 1011.8 981.4 +11.9
00 19.06 Ю 2
{6}
50 км 10/0
[Ac und]
+19.8 +4.6 37 +21 +24 комфорт 1011.4 981.3
03 19.06 Ю 3
{6}
50 км 10/0
[Ac und]
+20.5 +2.3 30 +21 +24 комфорт 1010.8 980.8
06 19.06 ЮВ 2
{5}
50 км 9/0
[Ac und]
+21.1 +3.7 32 +21 +23 комфорт 1009.8 979.9
09 19.06 Ю 2
{7}
50 км 9/0
[Ac und]
+19.9 +7.3 44 +21 +22 комфорт 1010.1 980.1 +21.1
12 19.06 Ю 2
{7}
50 км 8/0
[Ac As]
+14.7 +6.3 57 +15 +15 1012.1 981.5
15 19.06 В 1
{4}
50 км 8/0
[Ac As Ci sp]
+9.2 +6.3 82 +9 +9 1013.3 982.0
18 19.06 В 1
{3}
50 км 9/0
[Ac As Ci sp]
+10.6 +7.7 82 +10 +11 1013.3 982.2
21 19.06 ЮВ 3
{5}
50 км 9/0
[Ac As Ci sp]
+14.6 +7.4 62 +14 +16 1012.5 981.9 +7.8
00 20.06 ЮВ 3
{7}
50 км 9/4 600 м
[Cu hum Ac trans Cc]
+17.8 +7.3 50 +18 +21 1012.0 981.7
03 20.06 ЮВ 3
{8}
50 км 9/3 600 м
[Cu hum Ac trans Cc]
+18.0 +7.4 50 +18 +22 1011.3 981.0
06 20.06 Ю 3
{8}
50 км 9/3 600 м
[Sc Ac trans Ci fib]
+19.7 +7.8 46 +21 +23 комфорт 1010.4 980.4
09 20.06 Ю 2
{6}
50 км 9/3 1000 м
[Sc Ac trans Ci fib]
+18.1 +7.8 51 +19 +19 1011.2 980.9 +20.6
12 20.06 Ю 2
{7}
50 км 9/4 1000 м
[Sc Ac trans Ci fib]
+14.5 +8.4 67 +14 +14 1012.6 982.0
15 20.06 ЮВ 2
{4}
50 км 10/10 1380 м
[Sc]
+11.9 +7.4 74 +11 +11 1014.2 983.2
18 20.06 ЮВ 3
{6}
50 км 10/10 1260 м
[Sc]
+10.8 +5.5 70 +9 +9 1014.9 983.7
21 20.06 ЮВ 2
{7}
50 км 10/6 1000 м
[Sc Ac As]
+10.7 +5.8 72 +10 +10 1016.2 985.0 +10.0
00 21.06 ЮВ 1
{5}
50 км 10/8 1000 м
[Sc Ac As]
+11.6 +6.9 73 +12 +12 1016.5 985.4
03 21.06 ЮВ 3
{6}
50 км {дождь} 10/6 1000 м
[Sc Ac trans Ci fib]
+13.3 +5.4 59 +12 +14 1015.7 984.8
06 21.06 ЮВ 2
{5}
50 км {дождь} 9/3 1000 м
[Sc Ac trans Ci fib]
+13.7 +4.8 55 +13 +15 1015.5 984.7
09 21.06 ЮВ 2
{4}
50 км 9/3 1000 м
[Sc Ac cast]
+13.5 +5.2 57 +13 +13 1015.6 984.8 +14.1 0.3
12 21.06 ЮВ 2
{5}
50 км 9/5 1000 м
[Sc Ac trans]
+10.4 +4.5 67 +9 +9 1017.4 986.1
15 21.06 В 1
{3}
50 км 9/0
[Ac trans Ci fib]
+7.8 +4.6 80 +7 +7 1018.2 986.6
18 21.06 В 1
{3}
50 км 8/0
[Ac trans Ci fib]
+6.6 +3.3 79 +6 +7 1018.7 986.9
21 21.06 Ю 1
{3}
50 км 10/0
[Ac trans Cs]
+12.9 +4.3 56 +13 +18 1018.1 987.1 +6.3
00 22.06 ЮВ 2
{5}
50 км 8/4 1000 м
[Sc Ac trans Ci fib]
+15.9 +4.9 48 +16 +21 1017.2 986.6
03 22.06 ЮВ 4
{7}
50 км 10/3 1000 м
[Sc Ac trans Ci fib]
+16.5 +4.5 45 +16 +19 1016.4 985.9
06 22.06 ЮВ 3
{7}
50 км 8/4 1000 м
[Sc Ac trans Ci fib]
+17.9 +5.8 45 +18 +20 1015.7 985.3
09 22.06 ЮВ 2
{6}
50 км 8/3 1000 м
[Sc Ac trans Ci fib]
+17.0 +6.5 50 +17 +18 1015.7 985.2 +18.0
12 22.06 ЮВ 2
{5}
50 км 6/3 1000 м
[Sc Ac trans Ci fib]
+11.2 +7.0 75 +10 +10 1018.2 986.1
15 22.06 В 2
{8}
50 км 8/3 1000 м
[Sc Ac trans Ci fib]
+9.3 +6.8 84 +8 +8 1018.4 986.9
18 22.06 ЮВ 3
{5}
50 км 10/3 1000 м
[Sc Ac trans Ci fib]
+11.9 +7.0 72 +10 +11 1018.3 987.2
21 22.06 ЮВ 1
{7}
50 км 8/3 1000 м
[Sc Ac trans Ci fib]
+14.5 +6.6 59 +15 +18 1018.3 987.5 +9.1
00 23.06 ЮВ 4
{7}
50 км 8/3 1000 м
[Cu hum Ac trans Ci fib]
+19.1 +5.5 41 +19 +23 1017.2 986.8
03 23.06 Ю 4
{9}
50 км 10/6 1000 м
[Cu hum Ac trans Ci fib]
+20.1 +3.7 34 +21 +22 комфорт 1016.4 986.2
06 23.06 ЮВ 5
{10}
50 км 10/6 1000 м
[Cb cap Ac trans Ci fib]
+19.6 +4.5 37 +20 +20 1016.4 986.2
09 23.06 Ю 3
{11}
50 км 4/3 1000 м
[Sc diur, vesp Ci fib]
+19.1 +4.4 38 +20 +20 1016.7 986.4 +21.5
12 23.06 Ю 2
{7}
50 км 4/3 1000 м
[Sc Ac trans Ci fib]
+14.6 +4.9 52 +14 +14 1018.6 987.8
15 23.06 В 2
{4}
50 км 3/1 1000 м
[Sc Ac trans Ci fib]
+6.0 +4.5 90 +4 +4 1020.4 988.6
18 23.06 ЮВ 1
{3}
50 км 5/0
[Ac trans Ci fib]
+8.7 +6.0 83 +8 +9 1021.1 989.5
21 23.06 штиль 0
{2}
50 км 9/0
[Ac trans Ci fib]
+16.4 +7.6 56 +16 +21 1020.0 989.4 +4.6
00 24.06 Ю 4
{7}
50 км 8/4 600 м
[Cu med, cong Ac trans Ci fib]
+21.1 +4.6 34 +21 +25 комфорт 1019.2 989.0
03 24.06 Ю 4
{8}
50 км гроза без осадков 9/8 600 м
[Cb cap Ac trans Ci fib]
+18.6 +7.4 48 +19 +20 1018.7 988.3
06 24.06 СЗ 1
{12}
50 км в посл. час гроза {ливн. осадки} 9/4 600 м
[Cb cap Ac trans Ci fib]
+16.3 +13.2 82 +17 +19 1018.2 987.6
09 24.06 В 5
{8}
50 км 9/8 600 м
[Cb cap Ac trans Ci fib]
+16.6 +10.7 68 +16 +16 1019.2 988.6 +22.3 3
12 24.06 СВ 1
{8}
50 км {ливн. осадки} 9/6 600 м
[Cb cap Ac trans Ci fib]
+11.8 +11.2 96 +12 +12 1019.7 988.6
15 24.06 В 1
{3}
800 м туман 8/0
[Ac trans Ci fib]
+7.2 +7.2 100 +6 +6 1020.6 988.9
18 24.06 штиль 0
{2}
50 км {туман} 8/3 600 м
[Sc Ci fib]
+9.4 +9.1 98 +8 +9 1020.6 989.2
21 24.06 ЮВ 1
{3}
50 км 4/3 600 м
[Cu hum Ci fib]
+16.9 +10.7 67 +18 +23 1019.4 988.8 +6.5 0.6
00 25.06 ЮВ 2
{6}
50 км 5/5 600 м
[Cu med, cong]
+21.4 +8.6 44 +23 +28 комфорт 1017.8 987.7
03 25.06 В 3
{7}
50 км 5/5 600 м
[Cu Sc]
+23.0 +3.5 28 +23 +27 комфорт 1015.9 986.0
06 25.06 ЮВ 2
{7}
50 км 4/3 1000 м
[Sc Ci fib]
+23.7 +2.5 25 +23 +27 комфорт 1014.5 984.7

 

Местоположение метеостанции Омолон (Чукотка, Россия): широта 65.23 долгота 160.50 высота над уровнем моря 260 м.

В архиве по умолчанию представлена погода в Омолоне за последнюю неделю. Архивные данные за месяц целиком и за предыдущие месяцы, начиная с января 2011 года, Вы можете получить, выбрав интересующий диапазон дат из раскрывающегося списка и нажав кнопку "Ввод!".


*Определитесь, кто Вы:
робот инопланетянин человек

Внимание! Время в таблицах - всемирное. Для получения местного времени необходимо прибавить поправку, которая равна 12 ч.

Смотрите также архив погоды в соседних городах и на ближайших метеорологических станциях:

Погода в Кегали (Магаданская область, Россия) (112 км)
Погода в Верхне-Пенжино (Камчатский край, Россия) (209 км)
Погода в Баимке (Чукотка, Россия) (222 км)
Погода в Лабазной (Магаданская область, Россия) (235 км)
Погода в Коркодоне (Магаданская область, Россия) (315 км)
Погода в Константиновской (Чукотка, Россия) (326 км)
Погода в Балыгычане (Магаданская область, Россия) (339 км)
Погода в Анюйске (Чукотка, Россия) (350 км)
Погода в Островном (Чукотка, Россия) (358 км)
Погода в Эвенске (Магаданская область, Россия) (374 км)

Пояснения к столбцам:

Ветер - указаны скорость ветра в м/с - средняя за 10 мин, порывы в срок и между сроками (в фигурных скобках) и направление, откуда дует ветер: С - северный, СВ - северо-восточный, В - восточный, ЮВ - юго-восточный, Ю - южный, ЮЗ - юго-западный, З - западный, СЗ - северо-западный.
Видимость - горизонтальная дальность видимости в метрах или километрах. При видимости от 1 до 10 км при отсутствии осадков обычно наблюдается дымка, при ухудшении видимости до 1 км и менее - туман. В сухую погоду видимость может ухудшаться дымом, пылью или мглою.
Явления - указаны атмосферные явления, наблюдавшиеся в срок или в последний час перед сроком; фигурными скобками обозначены явления, наблюдавшиеся между сроками (за 1-3 часа до срока); квадратными скобками обозначены град или гололедные отложения с указанием их диаметра в мм.
Облачность - указаны через наклонную черту общая и нижняя облачность в баллах и высота нижней границы облаков в метрах; квадратными скобками обозначены формы облаков: Ci - перистые, Cs - перисто-слоистые, Cc - перисто-кучевые, Ac - высококучевые, As - высокослоистые, Sc - слоисто-кучевые, Ns - слоисто-дождевые, Cu - кучевые, Cb - кучево-дождевые. Подробнее классификацию облаков см. в Атласе облаков (PDF).
T - Температура воздуха - температура, измеренная на высоте 2 м над землей.
Td - Температура точки росы - температура, при понижении до которой содержащийся в воздухе водяной пар достигнет насыщения.
f - Относительная влажность воздуха - влажноcть воздуха, измеренная на высоте 2 м над землей.
Te - Эффективная температура - температура, которую ощущает одетый по сезону человек в тени. Характеристика душности погоды. При расчете учитывается влияние влажности воздуха и скорости ветра на теплоощущения человека.
Tes - Эффективная температура на солнце - температура, которую ощущает человек, с поправкой на солнечный нагрев. Характеристика знойности погоды. Зависит от высоты солнца над горизонтом, облачности и скорости ветра. Ночью, в пасмурную погоду, а также при ветре 12 м/с и более поправка равна нулю.
P - Атмосферное давление - приведенное к уровню моря атмосферное давление.
Po - Атмосферное давление - измеренное на уровне метеостанции атмосферное давление.
Tmin - Минимальная температура - минимум температуры воздуха на высоте 2 м над землей.
Tmax - Максимальная температура - максимум температуры воздуха на высоте 2 м над землей.
R - Количество осадков - Количество выпавших осадков за период времени, мм. При наведении курсора мыши на число - период времени, за который выпало указанное количество осадков.
R24 - Количество осадков - Количество выпавших осадков за 24 часа, мм.
S - Снежный покров - Высота снежного покрова, см. При наведении курсора мыши на число - состояние снежного покрова и степень покрытия местности в баллах.